Content
SEND FEEDBACK

Daily
Averages
Monthly
Summary
United States of America

MALDEN, MISSOURI


Home > North America > United States > Missouri
Elevation: 295 feet     Latitude: 36 36N     Longitude: 089 59W

WEATHER
 
SELECT A DAY
Number of Records: 207,718;   Date Range: 1/1/95 - 7/29/14
 
SHARE

PRINT THIS DATA

[ ← Previous Day ]
WEATHER ALMANAC - SEPTEMBER 29, 2013
[ Next Day → ]
[ °C ]   °F
Weather ElementAverageHighLow
Temperature68.8 °F72 °F (1:53 am)66.2 °F (10:46 pm)
Dewpoint63.1 °F64.9 °F (10:53 pm)61 °F (1:53 am)
Humidity82.2 %94 % (10:46 pm)68 % (1:53 am)
Barometer29.99 in30.03 in (10:22 am)29.96 in (3:53 pm)
Wind Speed3.6 mph9.2 mph (3:53 am)
Weather ElementAverage
Visibility8.4 mi
Wind DirectionENE (66.3 °)

Weather ElementTotal
Precipitation---
Cooling Degree Days4.1 (Base 65)
Growing Degree Days19.1 (Base 50)
Averaged from 40 records on September 29, 2013
WEATHER CONDITIONS BREAKOUT
WIND DIRECTION BREAKOUT
WEATHER BY HOUR - SEPTEMBER 29, 2013
[ °C ]   °F
Local TimeTemperatureDewpointHumidityBarometerVisibilityWind DirectionWind SpeedGust SpeedPrecipitationEventsConditions
1:53 AM72.0 °F61.0 °F68 %30.00 in10.0 miSouth (180°)6.9 mphOvercast
2:53 AM71.1 °F61.0 °F70 %29.99 in10.0 miSouth (170°)8.1 mphOvercast
3:53 AM70.0 °F61.0 °F73 %29.97 in10.0 miSouth (180°)9.2 mphOvercast
4:53 AM69.1 °F62.1 °F78 %29.97 in10.0 miSouth (180°)8.1 mphOvercast
5:33 AM69.8 °F62.6 °F78 %29.99 in10.0 miSouth (190°)6.9 mphOvercast
5:53 AM69.1 °F62.1 °F78 %29.98 in10.0 miSouth (190°)8.1 mphOvercast
6:53 AM66.9 °F63.0 °F87 %30.00 in10.0 miCalm0.00 inOvercast
7:53 AM68.0 °F63.0 °F84 %30.00 in10.0 miSouth (180°)4.6 mphOvercast
8:53 AM69.1 °F63.0 °F81 %30.01 in10.0 miCalmOvercast
9:10 AM69.8 °F62.6 °F78 %30.02 in10.0 miCalmOvercast
9:26 AM69.8 °F62.6 °F78 %30.02 in10.0 miCalmOvercast
9:53 AM69.1 °F64.0 °F84 %30.02 in10.0 miCalmOvercast
10:22 AM69.8 °F62.6 °F78 %30.03 in6.0 miCalm0.00 inRainLight Rain
10:37 AM68.0 °F64.4 °F88 %30.03 in5.0 miCalm0.00 inRainLight Rain
10:53 AM69.1 °F64.0 °F84 %30.02 in4.0 miCalm0.00 inHaze
11:06 AM69.8 °F64.4 °F83 %30.03 in9.0 miCalmOvercast
11:30 AM68.0 °F62.6 °F83 %30.02 in10.0 miNNE (20°)8.1 mphOvercast
11:53 AM68.0 °F62.1 °F81 %30.01 in10.0 miNNE (20°)5.8 mphOvercast
12:53 PM68.0 °F62.1 °F81 %30.00 in10.0 miNNE (20°)5.8 mphOvercast
1:36 PM69.8 °F62.6 °F78 %30.00 in10.0 miNNE (30°)5.8 mphOvercast
1:53 PM69.1 °F63.0 °F81 %29.99 in10.0 miNE (40°)6.9 mphOvercast
2:53 PM69.1 °F63.0 °F81 %29.97 in10.0 miNE (50°)8.1 mphOvercast
3:53 PM71.1 °F63.0 °F75 %29.96 in10.0 miNE (50°)5.8 mphOvercast
4:53 PM70.0 °F63.0 °F78 %29.96 in10.0 miENE (60°)5.8 mphOvercast
5:42 PM69.8 °F62.6 °F78 %29.97 in10.0 miENE (70°)3.5 mphOvercast
5:53 PM70.0 °F63.0 °F78 %29.96 in10.0 miENE (70°)3.5 mphOvercast
6:13 PM69.8 °F62.6 °F78 %29.97 in10.0 miEast (90°)4.6 mphOvercast
6:46 PM69.8 °F62.6 °F78 %29.97 in10.0 miEast (100°)3.5 mphOvercast
6:53 PM69.1 °F63.0 °F81 %29.96 in10.0 miEast (100°)4.6 mphOvercast
7:34 PM68.0 °F62.6 °F83 %29.98 in10.0 miCalmOvercast
7:53 PM68.0 °F64.0 °F87 %29.98 in10.0 miCalmOvercast
8:53 PM68.0 °F63.0 °F84 %29.97 in9.0 miCalmOvercast
9:42 PM68.0 °F64.4 °F88 %29.98 in8.0 miEast (90°)3.5 mphOvercast
9:53 PM68.0 °F64.0 °F87 %29.97 in8.0 miCalmOvercast
10:46 PM66.2 °F64.4 °F94 %29.97 in3.0 miCalmOvercast
10:53 PM66.9 °F64.9 °F93 %29.97 in2.5 miESE (120°)3.5 mphOvercast
11:15 PM66.2 °F64.4 °F94 %29.97 in1.8 miSSE (160°)4.6 mphOvercast
11:24 PM66.2 °F64.4 °F94 %29.97 in2.5 miSE (140°)4.6 mphOvercast
11:31 PM66.2 °F64.4 °F94 %29.97 in4.0 miSSE (150°)3.5 mphOvercast
11:53 PM66.9 °F64.0 °F90 %29.96 in4.0 miCalmOvercast
Hourly data recorded from KPOF, located miles away from Malden, Missouri







STORIES FROM OUR PARTNERS